GFSSE_850_spd_156.txt.gz
Wind_Speed
14 14 13 11 10 10 9 9 8 9 11 11 10 10 10 9 7 5 5 4 4 5 5 5 4 3 2 1 1 2 3 4 4 4 3 3 4 5 6 7 9 8 6
17 15 13 12 12 10 9 8 8 9 10 11 11 11 10 9 7 5 4 4 4 4 4 4 3 2 1 1 1 1 2 3 4 4 4 3 3 4 5 6 12 11 5
17 17 16 13 12 11 10 9 9 9 8 9 11 11 10 8 7 6 5 5 5 4 4 4 3 3 2 3 2 2 2 2 3 4 6 4 1 3 5 6 7 8 5
15 15 16 15 14 13 13 12 11 10 10 9 9 9 8 8 7 6 6 5 5 4 4 4 4 4 4 4 4 4 3 2 3 3 4 2 3 4 5 5 5 6 6
15 16 15 13 13 13 12 12 11 10 9 8 8 8 8 8 7 6 5 5 5 5 5 5 5 6 6 6 6 6 6 4 3 2 3 3 4 5 5 5 6 6 6
15 15 13 12 11 9 10 11 10 8 8 8 7 7 7 7 7 7 6 6 6 6 6 6 7 7 8 8 8 8 8 7 5 3 6 5 4 8 6 7 6 8 9
15 15 14 12 12 11 10 9 8 8 7 7 7 7 7 8 8 8 8 8 8 8 8 8 9 9 9 10 10 10 11 10 7 8 8 8 7 8 7 9 8 9 12
15 15 14 13 11 9 9 9 9 8 7 7 6 7 7 8 9 9 9 10 10 10 11 11 12 13 13 13 12 11 12 12 12 9 11 10 13 11 10 9 10 11 13
14 13 12 11 10 9 9 8 8 7 7 7 7 7 8 8 9 10 10 11 11 12 13 13 14 15 15 17 17 16 15 14 14 12 14 14 16 14 13 13 13 14 15
13 12 11 11 10 9 8 8 8 8 8 8 8 8 8 9 10 10 11 11 11 11 12 13 15 16 18 19 19 19 20 19 20 16 16 17 17 16 16 14 14 14 16
13 12 12 10 8 6 5 6 7 8 8 8 8 8 6 6 8 10 10 10 11 10 10 11 13 16 17 18 20 21 21 22 19 18 18 20 20 18 18 17 17 17 17
14 13 12 10 8 6 6 7 8 9 8 8 8 8 8 9 9 9 10 11 11 12 13 14 15 17 14 9 11 14 17 20 21 20 21 27 23 21 18 22 21 21 22
15 13 11 10 9 8 7 6 7 8 7 7 7 7 7 7 8 8 8 11 12 14 15 16 16 17 16 17 17 16 18 18 18 19 22 28 23 24 26 27 27 23 22
17 16 14 13 11 9 6 5 5 5 4 5 6 6 6 6 7 7 9 12 16 18 17 17 19 20 20 19 22 23 22 22 24 21 21 28 26 29 32 30 33 29 28
17 16 14 12 11 9 7 5 4 2 2 3 3 4 5 6 7 8 9 9 10 11 12 13 15 17 18 20 20 20 22 22 23 26 26 23 29 33 36 36 38 32 31
19 18 16 14 12 10 7 5 3 1 2 2 2 2 2 3 4 5 7 9 10 10 12 13 14 15 16 18 18 18 18 19 21 23 28 30 32 34 32 33 36 39 34
19 19 17 15 13 11 8 7 6 5 3 3 3 2 2 4 5 6 7 8 9 11 12 14 16 17 19 20 21 21 20 20 19 18 19 24 29 32 31 29 29 31 33
19 18 18 16 15 12 10 7 6 5 4 3 3 1 1 2 3 4 6 9 11 13 14 15 16 16 17 19 20 22 23 22 22 23 21 17 17 20 19 27 26 26 26
19 20 19 18 15 12 9 7 6 4 3 3 2 3 2 3 5 8 9 11 12 15 16 17 18 19 19 18 19 19 22 23 21 17 16 15 13 21 23 17 19 22 24
19 19 18 18 16 13 10 9 8 7 6 5 4 2 2 4 6 8 11 13 14 16 17 17 18 18 18 21 22 17 16 16 15 11 9 13 19 21 21 17 19 20 21
22 20 20 19 16 14 13 12 10 9 9 7 4 2 2 3 4 7 9 12 14 15 18 19 19 18 15 18 14 12 8 4 2 2 5 14 16 17 14 11 15 18 21
22 21 21 20 18 17 15 13 11 10 10 7 5 2 1 3 7 9 11 11 12 14 15 17 17 16 12 16 13 7 4 4 4 4 2 4 9 12 13 16 14 11 11
23 24 23 22 21 20 17 14 12 12 9 6 4 2 1 4 7 9 10 11 12 12 13 14 15 16 13 13 13 9 5 3 13 3 5 5 10 12 12 12 16 16 16
23 23 22 22 22 20 17 16 13 9 9 8 5 3 2 4 6 7 8 9 10 11 11 11 12 13 13 12 9 10 6 5 5 8 6 8 11 17 13 13 13 11 13
22 23 22 21 21 19 18 16 15 12 12 10 8 4 3 5 6 6 7 8 9 10 11 11 11 12 12 11 10 10 8 5 6 8 13 15 14 11 14 10 11 10 10
21 22 21 20 17 17 17 17 16 15 13 10 7 4 4 4 4 6 7 8 8 9 10 11 10 10 10 9 8 9 8 6 8 8 13 18 13 11 9 10 11 13 13

GFSSE_850_spd_159.txt.gz
Wind_Speed
13 17 16 14 11 8 6 6 8 9 12 11 10 10 10 9 6 5 5 4 5 5 5 4 2 1 0 1 2 3 5 5 6 6 4 2 2 3 5 7 10 6 1
16 18 16 14 13 10 8 7 6 7 10 10 10 10 9 7 5 4 4 3 4 4 4 4 3 2 1 1 3 3 4 5 6 7 6 2 1 3 5 7 8 10 2
15 17 16 15 13 12 11 9 8 8 9 10 10 10 9 7 5 4 4 4 4 4 4 4 3 2 2 3 3 3 4 4 5 5 8 1 6 5 4 6 6 8 3
13 14 16 15 14 12 12 9 9 8 9 10 11 11 10 8 7 6 5 5 5 4 4 4 4 4 4 5 4 4 4 4 4 5 5 3 2 7 3 5 6 6 5
14 12 15 13 13 12 10 10 9 10 10 9 9 9 9 8 7 7 6 6 5 5 5 5 6 6 6 6 6 6 6 5 4 3 3 3 3 10 5 5 6 5 4
14 12 16 14 12 11 10 10 11 10 10 9 8 8 7 7 7 7 6 6 6 6 7 7 7 8 8 8 8 8 8 7 5 4 6 8 5 10 10 7 6 6 7
14 13 15 14 12 11 11 11 11 10 9 7 7 7 7 7 8 8 8 8 9 9 9 9 9 10 10 10 9 10 10 10 8 8 9 9 7 14 12 9 10 9 10
14 13 15 13 12 11 11 10 9 9 8 7 6 6 7 8 8 9 10 11 11 12 12 13 13 13 14 14 13 12 11 12 12 10 9 11 15 18 14 12 11 12 11
15 13 12 13 12 10 9 8 7 6 6 6 6 7 7 8 8 9 10 11 12 13 14 14 15 15 16 16 16 16 15 15 15 13 13 14 19 20 17 15 14 15 14
16 15 15 12 11 10 8 8 7 7 7 7 7 7 6 7 8 8 10 11 11 12 13 14 15 16 17 18 18 19 18 19 20 18 16 17 23 22 19 18 17 18 17
15 14 14 13 11 9 8 9 9 8 7 6 6 5 5 4 3 7 8 8 9 11 11 11 12 13 16 16 16 17 18 21 17 19 19 22 23 24 20 20 20 19 18
16 15 16 15 13 12 11 9 8 7 7 7 7 5 4 6 6 7 8 9 10 12 13 14 14 15 15 9 13 13 12 13 18 18 19 23 24 26 24 23 24 22 20
18 16 17 18 16 12 10 8 6 5 6 7 8 7 8 4 4 2 4 6 9 10 10 12 10 9 12 14 10 12 12 14 14 17 18 22 26 28 27 27 26 23 22
19 17 15 16 15 13 9 8 6 5 5 6 7 7 5 2 5 7 7 7 9 12 14 15 12 18 17 17 15 16 14 14 14 17 17 24 27 29 28 29 31 29 26
20 18 17 16 15 14 13 10 8 6 6 5 6 7 8 5 6 6 7 6 7 9 10 11 13 14 16 15 17 17 14 14 16 18 16 22 25 28 26 30 32 33 33
20 18 18 17 17 16 14 11 9 9 7 6 5 4 6 5 4 2 3 4 6 8 9 10 12 14 15 17 19 19 19 18 15 15 18 18 21 28 30 26 25 31 35
19 18 18 18 18 17 14 13 11 9 6 5 5 5 4 3 2 1 2 4 6 7 9 10 11 13 13 14 16 18 19 17 14 15 15 13 14 17 21 22 21 25 26
18 18 17 17 18 16 15 12 11 10 9 7 5 4 3 2 1 2 4 6 8 11 12 13 13 13 12 14 15 17 18 18 15 15 13 10 15 20 20 19 17 22 22
20 19 18 18 18 17 15 14 12 10 9 8 7 6 5 2 1 2 5 8 10 12 14 15 15 15 16 16 17 18 16 15 13 11 11 9 16 22 24 25 25 18 21
19 19 18 19 20 19 16 14 12 10 9 8 8 7 5 2 1 4 7 10 11 11 13 15 15 15 14 17 20 16 12 11 9 7 8 12 13 17 19 18 17 17 20
21 21 20 20 20 19 14 12 10 8 8 8 8 6 5 3 1 4 6 7 8 10 13 14 15 13 11 17 14 15 8 3 2 1 4 6 8 10 14 15 12 11 14
22 21 20 18 18 15 12 11 11 10 9 10 9 8 5 3 1 2 4 8 9 9 11 12 12 12 8 13 14 9 6 3 2 3 3 4 7 6 10 14 11 11 14
23 23 21 19 18 15 15 14 13 12 11 9 8 7 6 4 1 3 4 6 8 8 9 10 10 11 9 11 13 10 7 7 16 2 5 6 9 12 11 9 9 9 14
22 21 20 20 19 17 18 13 13 10 10 9 9 9 7 4 2 2 4 6 6 7 8 8 9 8 8 8 8 9 7 6 6 8 6 9 15 8 11 10 8 7 7
21 20 20 20 19 18 18 14 14 12 15 12 9 8 6 4 2 2 3 4 6 7 9 9 9 8 8 7 7 7 7 3 5 10 11 12 10 9 8 7 8 8 9
22 21 21 21 19 16 16 15 15 15 14 12 10 8 6 5 4 4 4 5 6 7 7 8 8 8 7 7 6 7 6 6 7 7 13 14 14 10 7 5 10 11 14

GFSSE_850_spd_162.txt.gz
Wind_Speed
16 20 17 15 13 12 11 12 12 12 12 11 10 9 9 8 7 7 6 5 4 3 3 2 2 2 3 4 5 6 7 8 9 9 7 4 3 4 6 10 10 4 3
19 21 18 16 13 11 10 10 12 12 12 12 11 10 9 7 6 6 5 4 3 3 2 1 1 1 2 3 4 5 6 7 8 10 8 5 6 4 3 5 7 6 3
20 22 18 16 13 11 10 9 10 11 11 11 11 10 9 7 6 5 5 4 4 3 2 2 1 1 1 3 3 3 4 5 7 7 6 7 4 6 2 3 2 6 0
22 22 19 17 15 13 12 9 9 10 9 10 10 9 8 7 5 4 4 4 4 3 3 3 3 3 3 3 4 4 4 4 5 5 8 6 3 8 8 3 3 4 3
18 19 20 17 14 12 10 10 9 8 8 8 8 7 7 6 5 4 4 4 4 4 4 5 5 5 5 4 5 5 5 4 3 3 4 1 7 5 6 6 4 4 4
19 16 20 18 15 13 12 12 9 9 8 8 8 7 7 6 5 5 5 5 5 6 6 7 7 7 6 6 6 7 7 5 3 3 2 6 10 14 10 9 7 6 6
19 15 21 17 15 13 12 11 10 9 9 9 8 7 7 7 7 7 7 7 8 8 8 9 9 9 9 9 8 8 9 8 7 7 1 6 16 14 11 10 9 9 7
18 22 20 17 15 13 13 12 11 10 10 9 9 9 8 7 7 8 8 8 9 10 10 11 12 12 13 13 13 12 11 11 10 9 8 3 16 15 15 13 11 10 10
13 19 20 18 16 14 13 12 11 11 11 10 10 9 8 8 8 8 8 9 8 9 11 11 12 13 14 15 15 15 15 15 14 14 11 9 16 19 17 18 14 13 13
14 13 19 17 16 16 14 13 12 11 11 10 9 8 8 8 7 8 8 7 7 8 9 10 11 12 12 13 14 15 16 17 18 18 17 12 16 19 23 22 18 16 15
19 18 16 18 17 15 14 13 12 10 9 9 9 9 9 5 3 6 5 5 6 8 9 9 9 9 11 12 10 13 13 14 16 16 13 13 19 24 22 23 21 20 18
21 20 18 17 15 15 15 14 12 11 10 8 7 6 5 4 5 7 6 7 7 8 9 10 9 9 7 6 4 6 10 11 11 13 15 17 18 20 22 25 25 23 21
17 21 21 19 17 14 13 13 12 10 9 9 11 7 7 4 4 1 4 5 6 6 8 10 6 9 13 14 15 13 15 12 12 11 18 13 19 20 20 20 24 24 23
20 16 22 22 19 16 11 10 12 11 9 9 9 12 6 4 7 8 9 6 7 9 9 9 9 12 13 13 13 17 17 18 18 18 18 23 19 20 23 23 24 24 24
22 16 12 21 17 15 15 17 15 11 11 8 10 11 12 14 9 8 5 6 6 6 8 8 10 11 12 12 13 13 13 14 14 15 17 23 26 26 25 24 25 23 23
22 22 20 21 24 22 23 18 16 14 11 9 8 10 10 8 8 7 6 5 4 4 5 7 8 9 10 11 13 14 16 16 13 12 11 15 17 17 17 25 26 27 27
24 21 23 22 20 23 21 17 15 13 11 9 9 9 8 6 6 4 2 1 3 6 8 10 11 11 12 12 13 15 16 14 13 11 13 12 14 14 17 17 16 18 24
23 24 22 21 23 20 19 17 15 14 12 9 8 7 7 6 6 3 1 2 4 6 8 10 12 13 13 14 14 14 15 15 11 9 9 14 14 16 15 17 20 20 18
24 25 23 22 20 21 19 18 16 13 11 9 8 8 8 7 5 3 0 2 5 7 11 13 14 15 15 17 19 17 12 8 6 3 9 14 16 14 18 20 18 20 20
26 26 24 22 23 22 22 18 15 14 12 11 10 9 10 8 6 3 1 3 5 7 9 10 12 12 11 17 17 16 12 4 5 3 9 12 15 19 17 14 16 15 14
26 27 27 25 24 23 20 19 17 15 14 13 11 12 10 8 5 3 1 3 5 6 8 10 11 11 12 15 15 10 9 3 3 2 6 10 11 13 17 18 15 12 12
25 26 25 25 24 21 17 14 11 13 11 11 12 11 9 8 5 2 1 2 3 6 7 8 8 8 7 14 14 7 4 2 6 1 6 6 6 6 8 10 15 16 17
25 24 23 23 21 19 14 20 21 18 16 12 11 11 10 8 6 5 4 2 2 3 5 7 8 8 7 8 11 9 5 4 5 5 8 8 12 12 10 9 9 5 6
24 23 22 20 18 19 23 24 21 18 15 11 13 12 12 10 8 5 4 2 2 3 5 6 6 6 4 4 3 4 3 4 6 9 2 12 9 12 12 8 2 5 9
23 22 22 20 18 21 23 16 17 11 15 21 17 13 12 10 7 6 4 2 2 3 4 6 6 5 5 3 3 3 1 5 2 5 12 14 7 7 9 9 10 10 10
24 22 24 20 19 21 21 16 15 17 22 21 16 13 11 10 8 6 4 3 3 4 5 5 6 5 3 3 1 2 3 0 5 3 10 11 14 4 7 9 11 13 15

GFSSE_850_spd_165.txt.gz
Wind_Speed
26 25 21 20 19 18 17 16 15 14 13 14 14 14 12 10 9 8 8 8 7 6 5 4 4 4 5 5 6 7 8 9 9 10 8 7 6 4 4 4 4 6 5
30 27 23 20 19 17 16 15 16 16 15 15 14 13 12 10 9 7 7 6 6 5 4 3 3 3 4 4 5 6 8 9 9 10 11 9 9 5 3 1 4 5 4
26 27 24 20 18 17 16 16 16 15 15 15 14 13 11 9 8 7 6 5 5 4 3 2 1 2 2 3 3 4 6 7 6 7 8 6 6 7 3 1 1 3 3
27 26 23 21 18 16 15 15 15 14 13 13 13 12 10 8 7 7 6 5 4 3 2 2 1 0 2 3 3 3 3 4 3 5 6 4 3 5 5 3 3 1 1
27 24 22 20 18 16 14 14 13 12 13 11 12 11 9 8 6 6 5 5 3 2 2 2 2 2 2 3 3 3 2 1 2 3 2 4 2 1 7 5 5 3 3
27 24 22 20 17 15 14 12 12 12 12 10 10 9 9 7 6 6 5 4 4 4 3 4 5 4 4 5 5 5 4 3 2 5 2 3 8 5 9 10 7 6 5
24 23 22 20 18 16 14 13 12 11 10 9 9 9 8 7 6 6 5 5 5 5 6 6 7 7 6 6 7 7 7 6 5 6 3 3 6 10 10 9 9 7 7
18 20 22 20 19 17 15 14 13 12 11 10 10 9 9 8 7 8 8 7 7 7 8 8 9 9 9 9 10 10 10 10 9 8 7 5 3 12 14 10 10 11 10
15 16 23 21 20 18 16 15 14 13 12 11 10 9 9 9 9 9 9 8 7 7 8 8 9 9 9 9 10 10 11 12 13 12 10 11 10 9 13 13 12 13 13
15 21 23 20 19 17 16 15 14 13 12 12 11 10 10 9 8 6 4 4 5 5 6 6 7 7 6 6 7 6 6 9 11 14 14 13 15 14 13 14 16 15 16
15 21 22 20 19 17 16 15 14 14 12 11 11 11 10 7 3 2 3 3 3 4 4 4 4 5 7 7 6 5 5 8 9 8 10 12 12 15 18 19 19 19 16
19 19 22 22 20 18 17 17 16 15 13 12 10 7 4 4 4 2 3 4 6 7 7 7 9 9 8 6 7 5 7 6 6 7 10 11 15 18 18 18 16 18 17
22 22 19 21 21 19 19 19 17 15 14 13 12 10 9 8 8 7 6 9 8 9 8 9 10 10 11 11 12 13 13 12 12 14 14 14 13 15 17 16 16 18 17
27 25 23 21 18 19 18 17 15 14 13 13 13 13 13 12 12 10 10 10 7 8 8 9 8 8 8 9 10 11 12 12 15 17 19 20 20 18 17 18 19 19 20
25 22 26 23 21 16 16 17 16 15 13 13 15 14 15 13 11 13 13 10 7 6 6 6 7 8 8 9 10 10 11 10 9 11 11 15 18 21 22 25 21 19 17
26 22 21 25 21 20 22 22 20 18 14 13 15 15 14 13 11 10 8 5 4 4 2 3 4 6 7 8 9 10 11 12 10 7 9 12 13 14 13 12 13 16 18
32 28 24 31 29 28 27 25 22 20 16 13 13 13 13 12 11 8 6 6 5 2 2 5 7 9 10 11 12 12 12 11 10 6 6 10 10 11 11 10 8 8 10
37 34 31 34 34 31 30 27 26 22 18 15 14 14 14 13 11 8 7 5 2 1 2 4 6 7 9 10 10 10 9 8 3 3 11 12 11 10 9 12 15 14 15
37 35 34 33 31 31 29 27 25 22 19 17 16 15 14 12 10 9 8 5 1 2 3 5 7 8 9 9 10 9 4 1 5 3 6 6 7 11 12 15 17 16 14
38 35 31 29 27 28 27 26 23 22 20 18 17 16 14 13 12 10 8 5 3 2 3 4 5 6 8 9 9 7 9 11 6 3 4 7 12 14 12 12 11 10 10
41 36 31 27 26 27 26 25 25 23 21 18 16 16 16 15 13 11 10 8 5 2 2 4 5 7 8 8 6 10 12 12 6 6 4 7 9 9 12 14 12 11 11
42 36 31 28 27 26 24 22 21 21 19 16 16 17 18 16 15 13 10 7 3 1 2 3 4 6 8 9 7 5 8 9 11 9 8 6 5 7 9 7 5 8 10
41 37 32 28 23 21 20 18 19 19 19 18 18 20 19 18 15 12 9 6 3 3 2 3 3 5 6 6 5 2 3 5 9 7 3 7 8 8 10 8 9 7 9
39 34 30 26 21 19 21 23 25 23 20 16 20 19 19 17 15 11 8 6 4 3 2 2 3 4 4 3 2 2 1 1 4 6 5 1 3 6 9 12 11 11 16
38 34 28 23 19 21 24 25 27 22 15 19 21 18 18 16 14 10 8 6 5 4 3 2 2 2 3 2 1 1 4 6 5 4 8 9 2 2 10 9 12 13 15
33 27 23 19 17 25 22 25 23 19 23 24 21 18 18 16 13 11 9 8 6 5 5 4 3 2 1 1 1 1 4 7 6 5 7 12 10 4 5 3 8 12 17

GFSSE_850_spd_168.txt.gz
Wind_Speed
31 27 25 23 23 22 22 21 21 19 18 18 18 16 14 13 12 12 11 10 9 7 7 6 6 6 6 7 8 8 8 9 9 8 9 8 7 6 5 6 6 7 8
35 30 26 24 23 22 21 21 20 20 19 18 17 15 12 12 12 11 10 9 9 8 6 5 5 4 4 5 6 6 6 7 9 10 10 10 9 6 4 4 4 6 5
31 30 27 24 22 21 21 21 20 19 18 17 16 15 12 11 10 9 9 8 7 6 6 5 4 3 3 3 4 5 4 5 7 8 7 5 8 6 5 2 2 2 3
29 29 27 24 21 20 19 19 19 18 18 17 16 14 12 11 10 9 7 7 6 5 4 3 2 1 1 2 2 3 3 2 4 5 5 3 2 4 5 5 2 1 1
29 28 26 23 21 20 19 18 18 18 17 16 15 14 11 10 9 8 6 6 5 4 3 2 2 1 1 2 2 1 1 1 1 2 2 1 1 1 2 5 5 3 2
29 27 25 23 21 19 19 18 17 16 16 16 14 13 11 10 9 8 6 5 4 4 3 3 2 2 3 3 3 2 2 2 3 3 2 6 4 3 4 5 5 5 4
30 28 26 23 21 19 18 17 16 16 16 15 13 12 11 10 8 7 6 5 5 4 4 4 5 5 4 5 6 6 5 4 5 5 4 4 3 6 6 4 5 7 7
30 28 25 23 22 20 18 17 16 15 15 15 13 12 11 9 9 8 7 6 6 6 6 6 6 7 7 7 8 8 8 8 8 8 7 8 5 8 10 9 8 7 9
26 26 25 24 23 20 18 17 16 15 14 13 13 12 11 10 9 8 7 7 7 7 7 7 6 6 7 7 8 9 8 9 10 10 10 8 9 7 9 11 10 9 10
23 22 26 25 24 22 20 18 17 15 15 14 12 11 11 9 8 8 8 8 8 7 7 7 8 7 7 7 9 7 6 6 8 9 11 10 10 12 12 11 10 11 12
23 20 28 27 25 23 21 20 18 16 14 13 12 12 11 10 9 8 8 9 10 9 11 10 10 10 9 10 9 6 7 10 9 8 8 10 9 12 14 14 13 12 12
26 26 29 27 25 23 22 20 19 18 16 16 15 14 13 11 9 10 11 12 11 10 11 10 10 10 10 10 9 8 9 10 10 8 6 7 8 10 12 11 13 14 15
26 30 31 28 26 25 23 22 21 20 19 18 17 14 13 13 11 12 13 12 10 9 10 9 10 10 11 11 12 12 11 13 13 14 15 15 12 13 13 12 11 11 13
29 30 30 28 27 26 24 24 23 22 21 20 18 17 16 15 13 15 14 8 8 8 9 9 8 8 9 9 9 10 12 13 13 13 14 15 16 17 17 17 15 13 13
27 25 25 26 27 27 27 26 25 24 21 19 18 18 16 15 14 13 12 9 9 8 7 6 6 5 6 7 7 7 8 8 9 11 12 12 12 13 14 17 17 15 16
28 28 27 26 25 26 27 27 26 22 21 20 19 18 18 17 15 13 12 11 10 8 6 5 4 4 5 6 8 9 9 9 8 10 11 11 10 11 11 11 12 7 6
31 29 28 30 28 26 25 26 25 22 20 19 19 18 18 18 17 14 14 13 10 8 6 5 4 5 4 5 6 7 7 7 9 10 9 7 7 8 9 11 7 6 6
34 34 31 34 34 29 26 25 23 20 18 18 20 20 20 19 16 15 14 12 10 9 8 6 4 4 4 5 6 6 6 7 7 6 4 4 7 7 6 7 9 12 13
38 38 38 36 36 32 29 26 24 21 20 19 20 21 20 18 17 16 15 13 11 9 6 5 4 3 3 4 4 3 4 5 1 1 1 2 3 7 11 13 12 13 14
45 43 39 38 37 36 33 31 27 25 23 20 19 20 20 19 18 17 16 14 12 8 6 5 3 2 4 4 3 3 5 7 10 5 2 1 4 9 10 9 10 11 10
51 48 44 41 38 39 39 36 32 29 25 21 19 19 20 19 19 17 16 14 11 8 6 4 3 1 2 4 7 11 13 12 8 7 5 3 4 8 11 14 17 15 14
54 52 48 44 39 39 37 33 29 27 24 20 19 20 21 20 18 17 15 13 10 8 7 5 3 1 2 4 12 17 10 13 11 9 6 4 1 5 10 13 12 14 14
56 55 51 44 37 35 32 29 27 24 23 21 19 20 20 19 18 16 14 12 10 8 6 4 3 2 1 3 7 9 8 6 12 8 5 2 1 3 6 8 10 11 13
59 55 47 39 34 30 28 28 29 30 27 20 20 21 20 19 18 16 13 12 10 7 6 5 5 4 3 3 5 7 7 8 9 8 7 3 2 1 3 7 8 10 12
57 50 41 36 30 27 25 26 27 25 18 18 21 22 22 21 20 17 15 13 10 9 8 7 6 5 4 4 5 6 7 8 9 8 7 7 2 1 4 6 9 10 13
48 43 36 29 25 23 24 26 25 22 24 23 22 22 22 22 21 20 17 14 11 10 9 8 6 6 5 5 5 6 8 10 9 7 6 3 4 6 5 4 7 10 13

GFSSE_850_spd_171.txt.gz
Wind_Speed
29 26 26 26 26 25 25 24 21 19 18 17 15 15 14 13 11 11 10 9 8 7 6 6 7 7 8 8 9 10 11 11 11 11 11 9 9 9 8 7 7 7 8
32 28 27 26 26 25 25 23 21 19 18 18 16 14 13 13 11 10 9 8 7 6 5 5 5 6 7 7 7 8 9 10 10 9 11 10 8 6 6 6 6 7 6
31 28 26 25 25 24 23 22 21 20 19 18 16 13 13 12 11 10 9 8 7 6 5 4 4 5 5 5 5 5 6 7 7 7 6 6 7 5 4 4 4 5 4
31 29 26 23 21 21 21 22 21 20 19 17 16 13 12 12 11 10 9 8 7 6 5 4 3 3 4 4 4 3 3 4 4 4 4 3 4 4 5 5 3 3 2
30 28 25 23 21 21 20 20 20 20 19 17 16 14 12 11 11 9 8 7 5 4 3 2 1 2 2 2 3 2 1 1 2 2 1 2 1 1 3 4 3 3 3
31 29 26 24 22 21 20 20 19 19 18 18 17 15 13 11 10 8 8 7 5 3 2 1 0 1 1 1 1 1 1 1 2 3 2 3 5 4 2 2 3 3 4
33 30 27 24 22 21 20 20 19 19 19 18 16 14 13 12 10 9 7 7 5 4 4 4 3 3 4 4 5 4 4 4 4 4 5 5 3 6 5 3 3 4 5
31 31 28 25 23 21 20 20 19 19 19 18 17 15 14 12 10 10 9 7 6 7 7 7 7 8 8 8 9 8 8 8 8 7 6 8 8 7 10 7 5 7 6
32 31 29 27 26 24 22 21 20 20 19 18 17 15 13 12 12 11 10 9 9 9 9 10 10 10 11 11 10 8 9 11 11 10 10 10 10 10 8 10 7 7 8
32 31 30 29 28 26 24 23 21 20 19 18 16 15 14 13 11 11 11 10 9 10 10 10 10 10 11 11 11 10 10 10 11 11 10 11 12 12 11 10 9 8 8
33 32 30 30 29 28 26 24 22 21 20 19 17 16 15 14 13 12 11 11 10 10 9 9 9 10 11 10 10 9 8 8 9 9 9 7 8 11 10 10 12 11 12
36 34 32 31 30 29 26 24 23 22 20 19 18 17 15 14 13 12 12 11 10 10 10 10 11 11 11 11 10 10 10 10 11 11 8 6 5 5 7 6 7 10 11
35 32 32 33 31 29 27 25 24 22 21 20 19 18 17 16 16 15 13 11 11 11 11 11 11 11 12 11 11 12 13 14 13 13 13 13 11 12 12 10 9 9 10
35 33 32 34 33 30 28 27 25 24 23 21 20 19 19 18 16 15 10 8 8 9 9 10 9 9 8 8 8 8 11 13 15 15 15 15 15 15 15 14 13 13 13
34 32 32 36 35 33 31 29 27 25 22 21 20 19 18 16 14 11 9 8 8 8 9 8 8 8 7 7 7 8 9 10 11 11 11 11 12 12 12 11 10 7 7
34 32 34 35 32 32 31 30 28 26 24 23 22 21 19 16 13 11 11 10 9 8 8 8 8 8 7 7 8 8 9 10 10 9 8 7 7 7 7 6 6 2 3
38 33 34 35 33 31 30 29 29 28 25 24 23 20 19 17 15 14 13 12 10 10 10 9 8 8 7 6 8 9 10 10 9 8 7 5 5 5 5 6 6 7 8
38 35 33 33 33 32 32 31 29 26 24 22 22 21 21 20 18 17 16 13 13 13 12 9 8 7 6 6 7 7 7 6 4 4 3 3 2 3 3 6 8 10 13
41 39 37 36 34 32 29 27 27 25 23 22 22 22 22 21 19 18 17 16 15 14 11 9 8 6 4 5 5 5 4 3 3 4 4 3 3 4 6 9 9 9 10
43 40 38 37 35 34 30 28 27 27 25 23 22 22 22 21 20 19 18 17 16 13 11 9 7 5 4 4 4 4 6 7 7 6 5 4 3 5 7 9 9 9 9
44 45 43 42 39 38 36 35 33 33 28 25 25 24 24 22 21 19 18 17 15 13 11 9 7 5 4 5 7 10 11 9 9 8 6 3 2 4 7 9 10 8 8
50 48 48 47 44 42 39 38 35 33 28 25 25 25 25 25 23 21 20 19 17 14 12 10 9 8 8 10 11 10 9 7 7 6 5 4 3 3 6 8 9 9 8
57 54 53 50 47 44 42 39 34 32 29 29 28 26 26 25 23 22 20 18 15 13 11 10 10 10 11 13 17 10 7 6 13 8 6 5 3 4 4 7 9 9 10
58 54 52 49 48 45 42 40 36 32 34 33 26 25 25 24 23 22 21 19 17 15 13 12 11 10 11 12 14 20 14 9 10 9 8 5 5 5 5 6 8 11 11
51 52 53 51 50 43 36 28 27 30 28 23 23 23 22 22 21 20 18 17 16 15 13 11 10 10 10 10 11 12 11 11 14 7 11 8 7 5 6 6 8 10 12
34 40 46 47 39 29 23 22 22 22 22 22 22 20 19 19 20 19 18 17 17 15 13 12 11 11 10 10 11 12 12 10 9 10 8 9 8 8 7 7 8 10 13

GFSSE_850_spd_174.txt.gz
Wind_Speed
30 29 30 29 26 24 22 19 16 15 15 16 17 18 17 16 15 14 13 11 10 10 10 9 9 10 10 10 11 12 12 13 13 13 12 12 12 11 11 11 9 9 10
32 29 29 29 28 25 23 20 18 16 17 16 16 16 15 15 14 13 12 10 10 9 9 9 9 9 8 9 10 11 11 12 11 12 13 12 10 9 8 8 8 8 7
30 29 28 28 27 26 25 21 18 18 18 17 16 16 15 14 13 11 10 9 9 8 8 8 7 8 7 7 8 8 9 9 9 7 8 9 9 9 8 7 6 7 6
29 28 27 27 26 26 25 23 20 19 18 17 15 15 14 13 12 12 11 10 9 7 7 6 6 5 5 5 5 5 6 6 6 6 5 5 5 7 8 7 6 5 5
28 27 27 26 26 26 25 23 22 21 19 18 16 15 14 13 12 11 11 11 9 8 7 6 5 4 4 4 3 3 2 3 3 2 2 3 3 3 4 5 4 4 4
29 28 27 26 25 24 24 24 23 22 21 20 17 15 15 13 12 10 10 9 8 7 5 5 4 2 1 1 1 1 1 0 2 2 1 2 3 2 1 4 4 4 4
31 29 28 26 24 23 23 24 24 23 22 20 18 16 14 13 12 10 9 8 8 7 6 4 3 2 2 4 4 4 4 4 3 5 6 6 4 3 3 1 1 2 3
30 30 28 26 24 24 24 24 23 23 21 20 18 16 14 12 11 10 9 9 8 7 6 4 4 5 5 6 6 7 7 7 6 6 8 9 9 7 6 6 3 2 1
30 30 29 28 27 25 24 23 22 22 21 20 18 16 14 12 12 11 10 9 8 7 7 6 6 6 7 7 7 7 8 8 7 7 7 9 10 10 9 7 7 6 4
32 30 30 29 29 28 26 24 23 21 20 19 18 17 16 14 12 11 11 11 10 9 8 7 7 7 8 8 8 8 8 8 8 8 7 6 9 9 8 9 8 7 6
34 33 32 32 31 29 27 26 25 23 21 19 19 18 16 14 14 13 12 12 11 10 9 8 7 7 8 8 8 7 7 8 9 8 8 6 6 8 8 6 7 9 9
38 37 36 34 33 31 29 28 27 26 24 22 21 18 17 16 14 13 12 11 10 9 8 7 6 7 7 7 7 7 7 8 8 9 8 5 3 3 4 4 6 10 11
40 38 37 35 33 32 32 30 29 27 25 24 22 20 19 17 15 13 11 9 9 8 8 7 7 7 7 7 8 8 8 9 9 8 8 9 10 9 8 8 7 8 7
40 38 37 35 33 33 31 30 28 27 25 24 22 21 19 17 15 12 11 10 9 9 8 8 7 7 6 6 7 6 7 7 7 8 8 10 10 10 10 7 6 9 10
39 38 38 36 34 34 32 31 29 26 24 23 22 20 19 16 15 12 11 10 8 8 8 7 6 6 6 6 6 6 6 6 6 6 6 7 7 7 4 4 3 1 3
37 37 35 35 35 36 34 31 28 26 24 23 22 20 19 17 15 13 10 9 9 9 9 8 7 6 6 6 7 7 7 6 6 5 5 5 5 4 5 5 7 3 7
38 37 36 33 35 35 34 31 29 27 26 24 23 21 20 18 16 14 12 11 11 10 10 8 7 6 7 7 7 7 6 5 5 5 5 4 4 2 1 3 6 8 8
40 37 35 31 33 35 34 31 30 28 26 25 24 23 22 21 20 17 15 14 12 12 11 9 8 7 7 6 6 5 3 2 3 4 5 4 2 1 1 2 5 8 9
40 36 34 32 34 34 31 29 29 28 28 26 25 25 24 23 22 21 18 16 14 13 12 11 10 9 8 6 5 4 3 4 5 5 5 5 4 2 0 2 4 5 5
43 38 38 36 33 33 33 33 31 31 30 28 27 26 25 25 24 23 20 18 16 14 13 11 10 9 8 6 6 6 6 6 7 7 5 4 3 1 2 3 5 7 7
44 42 41 39 37 38 40 38 35 35 32 31 27 24 24 24 24 23 21 19 17 16 15 13 11 9 8 8 8 9 9 8 7 7 5 4 2 3 3 4 6 7 7
46 44 44 43 40 41 40 37 36 35 32 28 25 24 23 23 23 22 19 17 16 15 14 13 12 10 10 11 10 11 10 8 9 8 8 7 5 4 4 5 5 6 7
45 48 46 46 39 39 41 40 35 31 29 28 27 25 24 24 22 21 19 17 16 15 14 13 13 12 13 14 13 8 6 7 14 9 8 8 7 6 6 5 6 7 9
42 44 48 47 42 44 42 41 36 30 25 27 28 24 24 23 21 20 19 18 17 15 15 15 14 14 13 14 15 17 12 7 9 9 11 11 10 9 7 7 7 7 9
30 35 41 43 43 44 45 40 36 34 31 28 23 20 21 21 20 19 19 18 17 17 17 16 15 14 14 14 14 15 18 14 13 10 13 14 12 10 10 10 9 7 8
20 24 28 32 36 39 39 33 31 29 26 18 18 15 18 18 18 18 19 19 19 18 17 15 14 14 14 14 14 14 14 12 13 13 11 16 14 11 10 10 8 6 9

GFSSE_850_spd_177.txt.gz
Wind_Speed
33 32 29 26 25 24 22 18 19 21 22 22 23 20 20 17 17 16 15 15 14 13 13 12 12 12 12 12 13 15 15 14 14 13 13 13 13 13 12 12 11 11 12
36 36 31 29 26 24 22 19 17 18 21 22 21 20 18 18 16 15 14 13 12 12 12 11 10 11 11 11 12 13 13 13 14 14 13 12 11 11 10 10 10 10 10
35 36 34 31 28 25 24 20 17 17 18 19 20 20 19 17 16 15 13 12 11 11 10 10 9 9 10 10 10 10 10 10 9 9 10 10 10 10 9 9 9 9 8
33 34 34 31 28 27 25 22 19 19 19 18 17 18 17 16 15 13 11 11 10 10 10 10 9 8 8 8 8 7 7 6 7 7 7 8 8 8 9 9 8 8 7
32 32 32 30 28 27 26 23 21 20 20 19 17 17 16 15 14 12 11 10 10 9 9 9 8 7 6 6 6 5 4 3 4 3 5 4 4 4 6 7 7 7 7
31 30 30 30 29 28 27 25 23 22 21 19 18 17 16 15 14 13 12 11 10 9 8 7 7 6 5 5 4 3 2 2 1 1 0 1 3 0 4 5 6 6 6
32 30 29 29 28 29 28 27 24 23 22 21 18 16 16 15 14 13 12 11 9 8 6 5 5 4 3 3 2 2 1 1 1 2 3 3 1 1 1 2 3 4 4
30 30 29 28 28 28 28 27 26 24 23 22 20 18 16 15 14 13 12 10 8 7 6 5 4 3 3 2 3 3 3 3 3 5 5 5 5 3 3 4 2 1 1
30 30 30 30 28 27 27 27 26 25 24 23 21 19 17 16 14 12 11 10 9 8 8 6 5 4 4 3 4 5 5 4 4 5 6 7 6 5 5 4 4 2 1
30 30 30 30 29 28 27 26 25 25 24 23 21 19 18 16 14 13 11 10 9 9 8 7 6 5 4 4 5 4 4 3 2 2 3 5 7 5 4 5 5 5 5
33 32 31 31 30 29 27 27 25 24 24 23 21 20 18 17 15 13 12 11 10 9 8 7 6 6 5 5 5 5 4 3 2 2 1 0 2 4 2 5 7 8 8
37 35 33 32 31 30 29 28 28 26 26 25 24 21 19 17 15 13 12 12 11 10 9 9 8 8 7 6 4 4 4 4 3 3 2 1 1 1 1 1 5 7 8
38 37 35 33 32 31 31 30 29 28 27 26 24 22 21 18 16 14 12 12 11 11 11 10 9 7 6 4 4 4 4 4 5 4 3 5 5 6 5 5 5 6 6
42 38 36 35 33 32 31 31 30 29 28 26 25 23 21 18 16 14 13 12 11 11 10 9 7 6 5 4 3 2 3 3 4 5 5 5 5 4 2 2 5 8 8
42 41 38 36 36 34 33 33 33 32 30 27 25 24 22 19 17 15 13 12 11 10 9 8 8 7 6 4 3 3 2 2 3 4 5 4 3 5 7 4 3 2 5
42 41 39 38 36 35 36 35 33 31 29 27 27 25 23 20 18 15 13 13 12 11 10 8 8 7 6 5 4 3 3 3 4 4 5 6 6 8 10 8 4 3 5
43 41 39 38 36 38 38 37 34 31 30 30 28 26 24 22 20 17 15 14 13 12 11 10 9 8 7 6 5 4 4 4 5 5 4 5 6 7 5 4 2 3 5
42 42 39 37 39 40 40 37 34 32 31 30 29 27 26 24 22 20 18 16 14 13 12 12 11 10 8 7 6 6 6 7 7 6 6 6 6 5 4 2 3 4 5
40 39 38 37 37 39 36 35 35 32 31 30 28 27 25 24 22 21 20 18 16 14 13 12 12 11 9 8 7 7 8 9 8 8 8 7 7 5 3 1 2 3 4
37 38 37 36 36 33 30 33 34 33 33 31 30 30 27 25 23 23 22 20 17 16 15 14 13 12 10 10 10 10 10 10 10 10 9 9 8 6 3 1 1 2 4
34 38 39 38 35 32 34 37 36 35 35 34 33 29 26 25 24 23 23 20 18 17 17 16 15 14 15 14 14 14 13 11 12 11 10 9 8 7 4 2 1 2 3
34 37 39 38 36 34 35 39 39 40 38 36 33 30 27 25 24 23 23 21 19 19 19 18 18 18 17 19 16 14 10 10 11 12 12 12 10 8 6 4 3 2 3
32 36 39 40 38 34 38 40 42 38 36 35 32 28 26 24 23 23 22 20 20 19 19 18 18 17 18 20 17 11 7 6 14 12 13 12 11 10 8 6 4 5 5
30 30 34 38 37 38 39 40 40 38 38 35 29 24 24 24 24 20 20 20 19 19 19 19 19 18 18 19 19 19 14 9 8 8 14 14 13 12 10 8 6 6 7
21 27 32 33 38 39 41 41 41 40 37 29 25 27 28 30 27 21 19 20 20 19 19 19 18 18 18 17 19 20 18 14 13 9 11 15 16 15 13 11 9 7 7
10 18 24 28 30 34 36 36 37 35 31 23 24 22 21 12 13 17 19 18 18 16 16 16 15 15 14 13 15 16 17 17 17 14 10 13 12 14 14 12 10 8 7

GFSSE_850_spd_183.txt.gz
Wind_Speed
17 24 28 25 23 20 20 22 25 25 22 19 19 18 15 12 11 11 11 11 11 11 11 11 10 10 10 11 12 12 12 12 12 13 12 13 14 16 18 18 15 8 12
19 25 29 26 24 21 20 24 25 24 21 19 19 18 15 12 12 11 12 11 11 11 10 10 10 10 11 12 13 13 13 13 12 12 13 10 11 13 13 16 14 11 11
21 28 29 27 25 22 21 23 24 23 21 20 19 18 16 14 13 12 12 12 11 11 11 10 10 10 10 11 12 11 11 12 13 17 15 11 7 10 11 11 10 10 10
23 29 31 28 26 24 23 22 23 22 21 20 19 19 16 15 14 13 12 11 11 10 10 10 10 9 10 10 10 10 10 10 13 14 10 7 5 7 8 8 9 10 9
21 26 29 29 27 25 24 22 22 22 21 21 21 20 18 17 15 14 13 12 11 10 10 10 10 10 9 9 9 9 9 10 12 12 6 5 4 4 6 8 9 8 9
20 24 28 30 29 27 25 23 22 21 22 22 22 20 19 17 15 14 13 12 11 10 9 9 8 7 7 7 7 7 7 9 10 7 2 7 9 1 5 6 8 7 7
20 23 27 32 30 27 26 24 22 22 23 22 21 20 19 17 16 15 14 13 12 11 10 8 7 6 5 5 4 4 4 8 6 4 4 2 7 5 4 5 6 6 6
20 21 25 33 30 28 27 25 23 23 22 22 21 20 19 17 16 15 14 12 11 10 9 8 7 6 5 5 4 4 4 4 8 4 3 8 7 5 5 5 5 5 5
19 20 22 34 31 29 28 26 24 23 23 22 21 20 18 16 15 15 14 12 11 10 10 9 8 8 7 6 6 6 5 4 7 4 4 11 10 8 7 6 6 6 6
19 20 21 34 33 31 29 27 26 25 24 23 21 20 19 17 16 14 13 13 12 12 11 10 9 8 7 7 6 5 4 6 2 4 10 8 9 8 8 9 8 7 7
20 21 22 28 33 33 31 30 27 26 25 24 23 22 20 19 18 17 16 15 14 13 12 11 10 9 7 7 6 4 6 2 4 4 8 9 7 7 10 10 9 9 8
23 24 23 25 26 28 24 30 31 29 28 27 27 26 23 18 17 14 19 18 16 14 13 12 10 8 3 3 6 5 5 7 5 5 7 7 5 6 8 9 10 10 9
23 23 25 26 27 26 25 24 27 25 26 27 26 27 22 19 17 19 23 20 19 17 15 14 12 8 5 9 6 5 7 7 6 6 6 8 5 6 7 8 9 9 10
25 26 25 27 29 31 26 25 25 26 26 26 27 27 22 21 19 18 16 16 16 18 13 14 10 13 16 15 13 10 7 7 6 8 8 9 7 6 8 9 10 9 9
26 27 28 27 29 29 30 29 29 34 35 33 33 28 24 21 20 17 19 15 14 13 15 13 13 15 15 14 14 12 12 11 10 7 10 10 10 10 9 10 10 9 11
25 29 30 29 29 29 30 32 30 37 35 31 32 32 25 21 22 19 20 18 15 16 13 12 12 10 9 13 15 12 10 9 11 7 11 13 16 17 13 10 6 5 7
23 26 31 32 30 30 32 28 27 25 27 26 26 30 26 23 24 20 19 18 17 15 18 17 18 14 13 11 10 13 10 10 10 12 14 18 18 16 14 11 10 9 7
25 26 30 32 33 32 32 28 26 24 26 26 26 27 30 28 26 27 20 19 17 19 19 18 17 16 13 13 12 10 11 11 12 16 17 16 17 17 16 13 10 8 7
27 26 29 34 34 33 30 27 26 25 26 25 31 31 31 30 29 25 23 21 25 18 17 17 16 14 14 13 12 11 9 10 12 10 14 13 13 12 16 13 11 8 6
27 26 28 32 35 33 27 28 28 29 29 33 35 34 27 32 32 27 23 25 22 19 17 17 16 14 13 14 13 12 12 11 12 11 11 9 10 9 9 9 9 7 5
23 26 28 31 36 33 33 38 37 38 36 32 35 34 32 33 33 28 28 29 21 21 18 18 17 16 13 14 13 11 10 10 11 11 13 12 11 9 9 5 1 3 6
20 23 26 29 35 36 37 39 40 37 32 39 34 31 30 32 31 28 32 28 25 19 20 20 18 15 15 16 16 13 11 9 13 14 13 11 11 9 8 7 8 8 5
17 20 25 32 35 33 36 36 39 42 40 36 34 32 33 34 32 32 32 21 15 15 17 18 19 18 18 19 14 9 10 9 18 14 12 13 11 7 7 7 6 6 6
8 17 23 28 30 30 33 37 40 38 35 35 34 35 34 33 34 34 33 27 26 26 21 17 20 23 18 19 20 11 9 3 6 9 11 13 10 9 8 5 6 6 6
15 20 23 24 26 29 30 32 31 35 34 33 32 33 32 32 30 28 27 27 26 22 26 23 18 20 16 12 11 11 11 7 4 6 14 10 11 10 12 13 8 6 7
8 14 19 22 23 25 30 29 29 32 32 33 32 32 29 26 24 21 17 11 6 10 9 18 17 16 13 14 13 9 5 4 5 4 4 12 12 14 16 13 14 9 6